Weather History For Prescott AZ
This page updates 5 minutes after midnight. GMT -7
Station: KPRC0 Rows: 26
| Year | Date | Temp (°F) | Tmin (°F) | Tmax (°F) | RH% | Prcp | Snow | Wind | Gust | Pres | Sun | Cloud |
|---|---|---|---|---|---|---|---|---|---|---|---|---|
| 2000 | 2000-03-29 | 48.0 | 39.0 | 57.9 | 75 | — | — | 10.6 | — | 29.86 | — | 4 |
| 2001 | 2001-03-29 | 56.1 | 41.0 | 70.0 | 34 | — | — | 16.5 | — | 29.70 | — | 3 |
| 2002 | 2002-03-29 | 51.4 | 42.8 | 62.6 | 52 | — | — | 13.4 | — | 29.85 | — | 5 |
| 2003 | 2003-03-29 | 42.3 | 28.4 | 55.4 | 26 | — | — | 8.6 | — | 30.32 | — | 0 |
| 2004 | 2004-03-29 | 53.8 | 32.0 | 73.4 | 24 | — | — | 9.8 | — | 30.11 | — | 0 |
| 2005 | 2005-03-29 | 45.0 | 36.0 | 54.0 | 47 | 0.0 | — | 17.3 | — | 29.77 | — | 1 |
| 2006 | 2006-03-29 | 46.4 | 39.0 | 51.1 | 66 | — | — | 23.4 | — | 29.77 | — | 7 |
| 2007 | 2007-03-29 | 39.6 | 30.0 | 51.1 | 59 | — | — | 10.1 | — | 30.02 | — | 3 |
| 2008 | 2008-03-29 | 55.8 | 43.0 | 64.9 | 35 | 0.0 | — | 15.6 | — | 29.73 | — | 0 |
| 2009 | 2009-03-29 | 51.1 | 36.0 | 62.1 | 25 | 0.0 | — | 18.9 | — | 29.67 | — | 0 |
| 2010 | 2010-03-29 | 51.6 | 32.0 | 70.0 | 28 | 0.0 | — | 7.5 | — | 29.98 | — | 0 |
| 2011 | 2011-03-29 | 51.6 | 35.1 | 68.0 | 35 | 0.0 | — | 9.3 | — | 29.95 | — | 0 |
| 2012 | 2012-03-29 | 55.9 | 39.9 | 69.1 | 30 | 0.0 | — | 9.3 | — | 29.91 | — | 0 |
| 2013 | 2013-03-29 | 56.7 | 39.9 | 71.1 | 31 | 0.0 | — | 9.5 | — | 30.03 | — | 1 |
| 2014 | 2014-03-29 | 54.9 | 36.0 | 71.1 | 29 | 0.0 | — | 11.1 | — | 30.02 | — | 0 |
| 2015 | 2015-03-29 | 59.7 | 43.0 | 77.0 | 27 | 0.0 | — | 9.4 | — | 30.04 | — | 0 |
| 2016 | 2016-03-29 | — | — | — | — | — | — | 27.8 | — | 0.00 | — | — |
| 2017 | 2017-03-29 | 52.7 | 37.9 | 69.1 | 36 | 0.0 | — | 13.5 | — | 29.97 | — | 0 |
| 2018 | 2018-03-29 | 54.5 | 37.9 | 71.1 | 33 | 0.0 | — | 14.6 | — | 29.98 | — | 0 |
| 2019 | 2019-03-29 | 52.0 | 37.0 | 64.0 | 27 | 0.0 | — | 15.0 | — | 29.97 | — | 0 |
| 2020 | 2020-03-29 | 45.3 | 34.0 | 57.0 | 42 | 0.0 | — | 12.4 | — | 29.94 | — | 0 |
| 2021 | 2021-03-29 | 53.8 | 35.1 | 71.1 | 28 | 0.0 | — | 15.2 | — | 29.87 | — | 0 |
| 2022 | 2022-03-29 | 42.6 | 37.0 | 48.0 | 79 | — | — | 15.2 | — | 29.74 | — | — |
| 2023 | 2023-03-29 | 50.9 | 39.0 | 61.0 | 27 | 0.0 | — | 20.6 | — | 29.78 | — | 0 |
| 2024 | 2024-03-29 | 53.8 | 46.0 | 61.0 | 29 | 0.0 | — | 18.8 | — | 29.76 | — | 2 |
| 2025 | 2025-03-29 | 50.9 | 43.0 | 62.1 | 32 | 0.0 | — | 14.9 | — | 29.76 | — | 0 |